Regional Weather Roundup
Issued by NWS

Home | Current Version | Previous Version | Text Only | Print | Product List | Glossary Off
Versions: 1 2 3 4 5 6 7 8 9 10 11 12 13 14 15 16 17 18 19 20 21 22 23 24 25 26 27 28 29 30 31 32 33 34 35 36 37 38 39 40 41 42 43 44 45 46 47 48 49 50

000
ASUS45 KBOU 271707
RWRCO

WEATHER ROUNDUP FOR COLORADO
NATIONAL WEATHER SERVICE DENVER/BOULDER CO
1100 AM MDT FRI MAR 27 2015

NOTE: "FAIR" INDICATES FEW OR NO CLOUDS BELOW 12000 FEET WITH NO
SIGNIFICANT WEATHER AND/OR OBSTRUCTIONS TO VISIBILITY.

COZ001>005-013-030-031-271800-
...NORTHWEST COLORADO...

CITY           SKY/WX    TMP DP  RH WIND       PRES   REMARKS
CRAIG          SUNNY     52  32  46 N6        30.34F
HAYDEN         SUNNY     48  28  46 N5        30.35S
MEEKER         SUNNY     52  31  44 CALM      30.35S
MOUNT WERNER   NOT AVBL
STEAMBOAT SPGS CLOUDY    42  32  66 CALM      30.36S
WALDEN         SUNNY     43  27  52 SW5       30.34S
$$

COZ006>008-011-271800-
...WEST CENTRAL VALLEYS...

CITY           SKY/WX    TMP DP  RH WIND       PRES   REMARKS
GRAND JUNCTION SUNNY     56  24  29 SE10      30.31F
MONTROSE       SUNNY     55  23  28 CALM      30.35F
EAGLE          SUNNY     50  27  40 CALM      30.36F
RIFLE          SUNNY     51  27  39 CALM      30.34F
DELTA          SUNNY     53  25  33 CALM      30.34F
NUCLA          SUNNY     54  21  28 CALM      30.38F
$$

COZ017>023-064>068-271800-
...SOUTHWEST COLORADO...

CITY           SKY/WX    TMP DP  RH WIND       PRES   REMARKS
DURANGO        SUNNY     52  23  32 CALM      30.33F
CORTEZ         SUNNY     59  22  24 CALM      30.33F
PAGOSA SPRINGS SUNNY     53  19  26 SW3       30.36S
TELLURIDE      SUNNY     48  20  33 CALM      30.44S
WOLF CREEK PAS SUNNY     37  12  35 W5        30.53S
$$

COZ009-010-012-014-032>034-037-058>063-271800-
...CENTRAL COLORADO...

CITY           SKY/WX    TMP DP  RH WIND       PRES   REMARKS
ASPEN          SUNNY     48  25  40 N8        30.37R
BUENA VISTA    SUNNY     54  21  27 NW8       30.32S
COPPER MTN     MOSUNNY   34  21  60 W14G25    30.45S WCI  24
BERTHOUD PASS  CLOUDY    21  14  73 NW31G40   30.40S WCI   3
COTTONWOOD PAS SUNNY     50  14  23 SW13G23   30.38R
GUNNISON       SUNNY     45  21  39 CALM      30.40F
KREMMLING      PTSUNNY   50  28  43 CALM      30.36S
LEADVILLE      SUNNY     41  20  43 NW8G17    30.37S
SALIDA         SUNNY     58  22  24 NW8       30.37S
SUNLIGHT       SUNNY     37  27  65 SW5       30.50R
WILKERSON PASS SUNNY     37  21  52 SW6       30.43S
$$

COZ069>075-271800-
...SAN LUIS VALLEY/SANGRE DE CRISTO MOUNTAINS...

CITY           SKY/WX    TMP DP  RH WIND       PRES   REMARKS
ALAMOSA        SUNNY     54  19  25 VRB6      30.34S
LA VETA PASS   SUNNY     45  21  39 S10G23    30.39S
SAGUACHE       SUNNY     54  21  28 NW14G24   30.34F
$$

COZ035-036-038>040-271800-
...NORTHERN COLORADO FRONT RANGE...

CITY           SKY/WX    TMP DP  RH WIND       PRES   REMARKS
DENVER INTL AP PTSUNNY   61  31  32 NE8       30.18F
DMNS CITY PARK   N/A     64  28  25 W3        30.17F
AURORA         PTSUNNY   60  28  29 NW6       30.19F
FRONT RANGE AP MOSUNNY   59  32  36 MISG      30.20S
ERIE MUNI ARPT SUNNY     63  27  25 CALM      30.15F
BOULDER MUN AP SUNNY     63  30  29 NW5       30.14F
CENTENNIAL     PTSUNNY   59  29  31 N6        30.19F
BROOMFIELD     PTSUNNY   63  28  27 W9        30.18F
FORT COLLINS   SUNNY     59  32  36 N3        30.18S
LONGMONT       SUNNY     65  31  28 E10       30.17F
$$

COZ041-046-047-076>085-087-088-271800-
...PIKES PEAK/PALMER DIVIDE AND SOUTHERN FOOTHILLS...

CITY           SKY/WX    TMP DP  RH WIND       PRES   REMARKS
COLO. SPRINGS  PTSUNNY   58  24  27 W6        30.23S
A. F. ACADEMY  SUNNY     58  25  28 VRB7      30.22S
ELLICOTT       SUNNY    N/A N/A N/A CALM      30.22S
FALCON         SUNNY     58  23  26 SW3       30.25S
FORT CARSON    NOT AVBL
LIMON          SUNNY     58  31  35 N15       30.19F
MONUMENT HILL  SUNNY     54  27  35 W6        30.24S
TRINIDAD       SUNNY     62  25  24 N5        30.24S
$$

COZ042>045-048>051-090-091-271800-
...NORTHEAST COLORADO...

CITY           SKY/WX    TMP DP  RH WIND       PRES   REMARKS
GREELEY ARPT   MOSUNNY   59  34  38 SW6       30.15F
AKRON          SUNNY     56  34  43 W12       30.15F
BURLINGTON     MOSUNNY   53  34  48 SW16      30.17F
WRAY           PTSUNNY   53  34  48 SW12      30.14F
STERLING       SUNNY     57  36  44 W8G16     30.13F
HOLYOKE        MOSUNNY   54  36  50 SW12G18   30.13F
FORT MORGAN    SUNNY     56  33  40 CALM      30.16F
$$

COZ086-089-092>099-271800-
...SOUTHEAST COLORADO...

CITY           SKY/WX    TMP DP  RH WIND       PRES   REMARKS
PUEBLO         SUNNY     54  29  38 CALM      30.19F
LA JUNTA       SUNNY     54  29  38 VRB3      30.20F
LAMAR          SUNNY     50  33  52 SE9       30.19
SPRINGFIELD      N/A     52  32  46 S7G17     30.21F
$$



USA.gov is the U.S. government's official web portal to all federal, state and local government web resources and services.